STARLINK-31963 (59893 NORAD) Tracking and Keplerian Element Data

This shows tracking and keplerian element data for the satellite.

Feedback or suggestion? Click here.




ElementValue
Catalog59893
NameSTARLINK-31963
Epoch Orbit291
Epoch Day160.16667824
Epoch Year2024
RAAN174.3641
Inclination43.0036
Eccentricity0.000126
Argument of Perigee265.1507
Mean Anonmoly326.9052
Mean Motion15.79962446
Decay Rate-0.010173
L11 59893U 24100J 24160.16667824 -.01017300 00000+0 -59787-2 0 9995
L22 59893 43.0036 174.3641 0001260 265.1507 326.9052 15.79962446 2915



Live tracking and technical data element details for STARLINK-31963 (NORAD 59893). STARLINK-31963 can be tracked NOW for your location showing map with azimuth and elevation plus other details from your city location.







IsCatalogInMostPopularTable: catalog: 59893, numindb: 9
Update: records affected: 1



GetName: 59893 STARLINK-31963

Hit Count: updated at: Wed, 24 Jul 2024 23:43:52 GMT